Regional Weather Roundup
Issued by NWS

Home | Current Version | Previous Version | Text Only | Print | Product List | Glossary On
Versions: 1 2 3 4 5 6 7 8 9 10 11 12 13 14 15 16 17 18 19 20 21 22 23 24 25 26 27 28 29 30 31 32 33 34 35 36 37 38 39 40 41 42 43 44 45 46 47 48 49 50
000
ASUS43 KDTX 301310
RWRMI
MICHIGAN HOURLY REGIONAL WEATHER ROUNDUP
NATIONAL WEATHER SERVICE DETROIT/PONTIAC MI
800 AM EST FRI JAN 30 2015

NOTE: "FAIR" INDICATES FEW OR NO CLOUDS BELOW 12,000 FEET WITH NO
SIGNIFICANT WEATHER AND/OR OBSTRUCTION TO VISIBILITY.

MIZ047>049-052>055-059>063-066>070-074>076-081>083-301400-
SOUTHEAST LOWER MICHIGAN

CITY           SKY/WX    TMP DP  RH WIND       PRES   REMARKS
ADRIAN         PTCLDY    17   8  67 N14       30.36R
ALMA           CLOUDY    16   7  67 N10       30.40R
ANN ARBOR      FLURRIES  16   7  67 N14G24    30.35R
BAD AXE        CLOUDY    11   5  77 NW20      30.35R WCI  -8
DETROIT CITY   CLOUDY    16   4  59 N13G23    30.35R
DETROIT        MOCLDY    17  12  80 NW14      30.35R
FLINT          LGT SNOW  14   6  70 N14       30.38R WCI  -1
GROSSE ILE     FLURRIES  18   9  68 NW15G23   30.33R
HILLSDALE      CLOUDY    19  11  70 N9G17     30.33R
HOWELL         PTCLDY    13   4  68 NW14G20   30.36R WCI  -2

CITY           SKY/WX    TMP DP  RH WIND       PRES   REMARKS
JACKSON        CLOUDY    18   7  62 N13G26    30.36R
LAMBERTVILLE   PTCLDY    21  10  63 N9        30.37R
LANSING        CLOUDY    17   6  62 N15       30.39R
LAPEER         NOT AVBL
MASON          CLOUDY    16   6  64 N18G26    30.37R WCI   0
MONROE         CLOUDY    18   9  68 N13G20    30.34R
MT. CLEMENS    CLOUDY    14   5  68 NW22G28   30.32R WCI  -4
PONTIAC        MOCLDY    12   4  70 N15G29    30.32R WCI  -4
PORT HOPE        N/A     15  11  83 NW15G24   30.32R WCI   0
PORT HURON     CLOUDY    12   5  73 NW20G28   30.32R WCI  -6
TRI CITIES     CLEAR     12   2  64 N16       30.41R WCI  -5
YPSILANTI      CLEAR     18   5  57 N17G30    30.35R
$$
MIZ043>046-050>051-056>058-064>065-071>073-077>080-301400-
SOUTHWEST LOWER MICHIGAN

CITY           SKY/WX    TMP DP  RH WIND       PRES   REMARKS
BATTLE CREEK   CLOUDY    20   6  55 N17G28    30.39R
BENTON HARBOR  FLURRIES  23  15  71 N8G21     30.43R
BIG RAPIDS     CLOUDY    17  10  74 N8        30.38R
COLDWATER      FLURRIES  19  11  70 N9        30.37R
HOLLAND        FLURRIES  21  12  68 N7        30.44R
GRAND RAPIDS   CLOUDY    20   7  57 N13       30.41R
KALAMAZOO      CLOUDY    20   9  62 N18       30.40R
MARSHALL       CLOUDY    19   8  61 N9G17     30.37R
MUSKEGON       FLURRIES  20   9  62 N12       30.45R
$$
MIZ016>042-301400-
NORTHERN LOWER MICHIGAN

CITY           SKY/WX    TMP DP  RH WIND       PRES   REMARKS
ALPENA         LGT SNOW   6   0  76 N18       30.41R WCI -13
BEAVER ISLAND  CLOUDY    11   5  76 CALM      30.43S
BELLAIRE       CLOUDY    11   4  72 CALM      30.44R
CADILLAC       LGT SNOW  12   7  81 N5        30.35R
CHARLEVOIX     CLOUDY     9   4  77 NE7       30.46R
FRANKFORT      CLOUDY    18  10  70 N8        30.43S
GAYLORD        CLOUDY     5   0  79 NE3       30.36R
GRAYLING       MOCLDY     8   1  72 NW9       30.38R
HARBOR SPRINGS CLOUDY     6  -1  74 CALM      30.44R
HOUGHTON LAKE  CLOUDY    10   1  67 N14       30.37R WCI  -6
MANISTEE       CLOUDY    19   7  58 N9G17     30.43S
OSCODA         MOCLDY     7   1  75 N15G21    30.38R HAZE    WCI -10
PELLSTON       CLOUDY     5  -1  76 NE3       30.45R
TRAVERSE CITY  CLOUDY    17   9  70 N10G20    30.41R
$$
MIZ007>008-015-301400-
EASTERN UPPER MICHIGAN

CITY           SKY/WX    TMP DP  RH WIND       PRES   REMARKS
KINROSS        CLEAR     -4  -9  77 NE5       30.42R
MACKINAC ISLAN PTCLDY     1  -5  75 N6        30.44R
NEWBERRY       CLOUDY     6   4  88 E6        30.40R
S. S. MARIE    CLEAR     -3 -13  62 N8        30.43R
$$
MIZ004>006-011>014-085-301400-
CENTRAL UPPER MICHIGAN

CITY           SKY/WX    TMP DP  RH WIND       PRES   REMARKS
MANISTIQUE     LGT SNOW  13  10  90 N3        30.43R
ESCANABA       CLOUDY    10   0  61 NW8       30.47R
MENOMINEE      CLOUDY    12   1  62 N5        30.49R
SAWYER-GWINN   CLOUDY     9   3  78 NW9       30.41R
$$
MIZ001>003-009>011-084-301400-
WESTERN UPPER MICHIGAN

CITY           SKY/WX    TMP DP  RH WIND       PRES   REMARKS
IRON MOUNTAIN  CLOUDY    10   1  67 NW7       30.43R
HOUGHTON       FLURRIES   8   1  73 NW10      30.42S WCI  -6
COPPER HARBOR    N/A     12   4  70 N15G21    30.45F WCI  -4
IRONWOOD       CLOUDY    10   5  79 W6        30.40F
$$

ABBREVIATIONS USED IN REMARKS
   TC - TEMPERATURE IN CELSIUS
  WCI - WIND CHILL INDEX
   HX - HEAT INDEX
  VSB - VISIBILITY



USA.gov is the U.S. government's official web portal to all federal, state and local government web resources and services.